Weather History for Burlington, CO

Change the Weather History Date:

Tuesday, December 18, 2012

  Actual Average Record
Temperature  
Mean Temperature 35 °F 28 °F  
Max Temperature 50 °F 41 °F 74 °F (1979)
Min Temperature 19 °F 15 °F -14 °F (1924)
Degree Days  
Heating Degree Days 32    
Moisture  
Dew Point 12 °F    
Average Humidity 46    
Maximum Humidity 78    
Minimum Humidity 22    
Precipitation  
Precipitation 0.00 in 0.01 in 0.20 in (1918)
Month to date precipitation 0.07 0.28  
Year to date precipitation 10.63 17.31  
Sea Level Pressure  
Sea Level Pressure 29.75 in    
Wind  
Wind Speed 10 mph (North)    
Max Wind Speed 16 mph    
Max Gust Speed -    
Visibility 10 miles    
Events      
T = Trace of Precipitation, MM = Missing Value Source: NWS Daily Summary

Daily Weather History Graph

Daily Weather History Graph

Search for Another Location

Airport:

Trip Planner

Search our weather history database for the weather conditions in past years. The results will help you decide how hot, cold, wet, or windy it might be!

Date:

Astronomy

Dec. 18, 2012 Rise Set
Actual Time 7:03 AM MST 4:28 PM MST
Civil Twilight 6:33 AM MST 4:58 PM MST
Nautical Twilight 5:59 AM MST 5:32 PM MST
Astronomical Twilight 5:27 AM MST 6:04 PM MST
Moon 10:46 AM MST (12/18) 10:54 PM MST (12/18)
Length of Visible Light 10h 24m
Length of Day
9h 24m
Waxing Crescent, 35% of the Moon is Illuminated
Dec 18
Waxing Crescent
Dec 19
First Quarter
Dec 28
Full
Jan 4
Last Quarter
Jan 11
New

Hourly Weather History & Observations

Time (MST) Temp. Windchill Dew Point Humidity Pressure Visibility Wind Dir Wind Speed Gust Speed Precip Events Conditions
12:53 AM 30.0 °F 21.1 °F 15.1 °F 54% 29.62 in 10.0 mi West 10.4 mph - N/A   Clear
1:37 AM 33.8 °F 23.5 °F 15.8 °F 48% 29.68 in 10.0 mi NW 16.1 mph - N/A   Clear
1:53 AM 30.9 °F 21.7 °F 16.0 °F 54% 29.66 in 10.0 mi NW 11.5 mph - N/A   Clear
2:53 AM 27.0 °F 18.7 °F 17.1 °F 66% 29.68 in 10.0 mi WNW 8.1 mph - N/A   Clear
3:53 AM 26.1 °F 17.6 °F 18.0 °F 71% 29.70 in 10.0 mi NW 8.1 mph - N/A   Clear
4:53 AM 25.0 °F 15.5 °F 17.1 °F 72% 29.75 in 10.0 mi WNW 9.2 mph - N/A   Clear
5:53 AM 24.1 °F 16.0 °F 16.0 °F 71% 29.79 in 10.0 mi WSW 6.9 mph - N/A   Clear
6:53 AM 19.9 °F 9.3 °F 14.0 °F 78% 29.83 in 10.0 mi West 9.2 mph - N/A   Clear
7:53 AM 25.0 °F 18.1 °F 17.1 °F 72% 29.84 in 10.0 mi West 5.8 mph - N/A   Clear
8:53 AM 35.1 °F 29.3 °F 19.9 °F 54% 29.81 in 10.0 mi NW 6.9 mph - N/A   Clear
9:53 AM 43.0 °F 36.8 °F 17.1 °F 35% 29.81 in 10.0 mi NNW 11.5 mph - N/A   Clear
10:53 AM 46.0 °F 41.0 °F 14.0 °F 28% 29.78 in 10.0 mi NNW 10.4 mph - N/A   Clear
11:53 AM 48.0 °F - 10.9 °F 22% 29.77 in 10.0 mi North 11.5 mph - N/A   Clear
12:53 PM 48.0 °F - 10.9 °F 22% 29.75 in 10.0 mi North 5.8 mph - N/A   Clear
1:53 PM 48.0 °F - 10.0 °F 22% 29.74 in 10.0 mi ENE 9.2 mph - N/A   Clear
2:53 PM 48.0 °F - 10.0 °F 22% 29.76 in 10.0 mi ENE 6.9 mph - N/A   Clear
3:53 PM 41.0 °F 36.4 °F 10.9 °F 29% 29.77 in 10.0 mi East 6.9 mph - N/A   Clear
4:53 PM 33.1 °F 25.5 °F 8.1 °F 35% 29.79 in 10.0 mi East 9.2 mph - N/A   Clear
5:53 PM 30.0 °F 21.7 °F 6.1 °F 36% 29.81 in 10.0 mi ESE 9.2 mph - N/A   Clear
6:53 PM 30.0 °F 21.1 °F 7.0 °F 38% 29.79 in 10.0 mi SE 10.4 mph - N/A   Clear
7:53 PM 32.0 °F 23.0 °F 7.0 °F 35% 29.76 in 10.0 mi SSE 11.5 mph - N/A   Clear
8:53 PM 30.0 °F 22.4 °F 9.0 °F 41% 29.73 in 10.0 mi SSE 8.1 mph - N/A   Clear
9:53 PM 27.0 °F 19.5 °F 9.0 °F 47% 29.70 in 10.0 mi SE 6.9 mph - N/A   Clear
10:53 PM 21.9 °F 11.7 °F 8.1 °F 55% 29.71 in 10.0 mi ESE 9.2 mph - N/A   Clear
11:53 PM 21.9 °F 11.7 °F 8.1 °F 55% 29.67 in 10.0 mi East 9.2 mph - N/A   Clear